Weather History for KMGY - April, 2013

Change the Weather History Date:

Friday, April 12, 2013

  Actual Average (KFFO) Record (KFFO)
Temperature  
Mean Temperature 47 °F -  
Max Temperature 55 °F 61 °F 80 °F (2001)
Min Temperature 37 °F 40 °F 28 °F (2009)
Degree Days  
Heating Degree Days 18    
Moisture  
Dew Point 41 °F    
Average Humidity 84    
Maximum Humidity 100    
Minimum Humidity 56    
Precipitation  
Precipitation 0.16 in - - ()
Sea Level Pressure  
Sea Level Pressure 29.67 in    
Wind  
Wind Speed 10 mph (WSW)    
Max Wind Speed 20 mph    
Max Gust Speed 33 mph    
Visibility 8 miles    
Events Rain    
Averages and records for this station are not official NWS values.
T = Trace of Precipitation, MM = Missing Value Source: NWS Daily Summary

Daily Weather History Graph

Daily Weather History Graph

Search for Another Location

Airport or City:

Trip Planner

Search our weather history database for the weather conditions in past years. The results will help you decide how hot, cold, wet, or windy it might be!

Date:

Astronomy

Apr. 12, 2013 Rise Set
Actual Time 7:03 AM EDT 8:12 PM EDT
Civil Twilight 6:36 AM EDT 8:39 PM EDT
Nautical Twilight 6:03 AM EDT 9:13 PM EDT
Astronomical Twilight 5:28 AM EDT 9:47 PM EDT
Moon 8:13 AM EDT (4/12) 10:41 PM EDT (4/12)
Length of Visible Light 14h 03m
Length of Day
13h 08m
Waxing Crescent, 5% of the Moon is Illuminated
Apr 12
Waxing Crescent
Apr 18
First Quarter
Apr 25
Full
May 2
Last Quarter
May 9
New

Hourly Weather History & Observations

Time (EDT) Temp. Windchill Dew Point Humidity Pressure Visibility Wind Dir Wind Speed Gust Speed Precip Events Conditions
12:03 AM 57.2 °F - 57.2 °F 100% 29.55 in 3.0 mi ESE 5.8 mph - 0.00 in Rain Light Rain
12:15 AM 55.4 °F - 55.4 °F 100% 29.53 in 6.0 mi ESE 8.1 mph - 0.01 in Rain Light Rain
12:53 AM 55.9 °F - 55.9 °F 100% 29.52 in 10.0 mi South 4.6 mph - 0.01 in   Overcast
1:11 AM 55.4 °F - 55.4 °F 100% 29.52 in 10.0 mi SSW 4.6 mph - N/A   Overcast
1:45 AM 55.4 °F - 55.4 °F 100% 29.51 in 2.5 mi South 4.6 mph - 0.01 in Rain Light Rain
1:53 AM 55.9 °F - 55.9 °F 100% 29.51 in 2.5 mi South 8.1 mph - 0.02 in Rain Light Rain
2:09 AM 55.4 °F - 55.4 °F 100% 29.52 in 3.0 mi SSW 10.4 mph - 0.02 in Rain Light Rain
2:32 AM 53.6 °F - 53.6 °F 100% 29.54 in 2.0 mi West 19.6 mph 33.4 mph 0.09 in Rain Rain
2:40 AM 51.8 °F - 51.8 °F 100% 29.53 in 3.0 mi West 13.8 mph 25.3 mph 0.10 in Rain Light Rain
2:44 AM 51.8 °F - 51.8 °F 100% 29.54 in 5.0 mi West 15.0 mph 21.9 mph 0.10 in Rain Light Rain
2:53 AM 52.0 °F - 52.0 °F 100% 29.52 in 6.0 mi West 15.0 mph 21.9 mph 0.11 in Rain Light Rain
3:38 AM 50.0 °F - 48.2 °F 94% 29.53 in 9.0 mi WNW 9.2 mph 19.6 mph 0.01 in Rain Light Rain
3:53 AM 50.0 °F - 48.9 °F 96% 29.53 in 10.0 mi West 11.5 mph - 0.01 in   Overcast
4:08 AM 50.0 °F - 48.2 °F 94% 29.54 in 10.0 mi WNW 10.4 mph - N/A   Overcast
4:38 AM 48.2 °F - 48.2 °F 100% 29.56 in 10.0 mi West 13.8 mph - 0.00 in   Overcast
4:48 AM 48.2 °F - 46.4 °F 93% 29.56 in 10.0 mi WNW 16.1 mph 24.2 mph 0.00 in   Overcast
4:53 AM 48.0 °F - 46.9 °F 96% 29.56 in 10.0 mi WNW 18.4 mph 24.2 mph 0.00 in   Overcast
5:36 AM 44.6 °F 37.8 °F 42.8 °F 93% 29.60 in 10.0 mi West 15.0 mph 23.0 mph N/A   Overcast
5:53 AM 44.1 °F 38.1 °F 43.0 °F 96% 29.61 in 10.0 mi West 11.5 mph - N/A   Overcast
6:19 AM 42.8 °F 35.8 °F 42.8 °F 100% 29.62 in 8.0 mi WNW 13.8 mph 20.7 mph N/A   Overcast
6:53 AM 42.1 °F 36.6 °F 41.0 °F 96% 29.65 in 9.0 mi West 9.2 mph 17.3 mph N/A   Overcast
7:35 AM 39.2 °F 32.5 °F 39.2 °F 100% 29.67 in 2.0 mi West 10.4 mph 19.6 mph 0.01 in Rain Light Rain
7:44 AM 39.2 °F 31.6 °F 39.2 °F 100% 29.67 in 6.0 mi West 12.7 mph 18.4 mph 0.01 in   Overcast
7:53 AM 39.0 °F 30.6 °F 37.0 °F 93% 29.68 in 10.0 mi WSW 15.0 mph 21.9 mph 0.01 in   Overcast
8:02 AM 39.2 °F 32.5 °F 37.4 °F 93% 29.68 in 10.0 mi WSW 10.4 mph - N/A   Overcast
8:53 AM 37.9 °F 30.9 °F 33.1 °F 83% 29.71 in 10.0 mi West 10.4 mph 20.7 mph N/A   Overcast
9:53 AM 39.0 °F 32.3 °F 33.1 °F 79% 29.72 in 10.0 mi WSW 10.4 mph 18.4 mph N/A   Overcast
10:53 AM 39.9 °F 31.1 °F 30.9 °F 70% 29.74 in 10.0 mi WSW 17.3 mph 27.6 mph N/A   Overcast
11:34 AM 41.0 °F 32.8 °F 30.2 °F 65% 29.75 in 10.0 mi West 16.1 mph 26.5 mph N/A   Mostly Cloudy
11:53 AM 41.0 °F 32.2 °F 28.9 °F 62% 29.76 in 10.0 mi WSW 18.4 mph 26.5 mph N/A   Mostly Cloudy
12:53 PM 43.0 °F 35.7 °F 28.9 °F 58% 29.76 in 10.0 mi WSW 15.0 mph 28.8 mph N/A   Overcast
1:53 PM 45.0 °F 37.6 °F 30.9 °F 58% 29.76 in 10.0 mi SW 17.3 mph 21.9 mph N/A   Overcast
2:53 PM 46.9 °F - 32.0 °F 56% 29.76 in 10.0 mi SW 12.7 mph - N/A   Overcast
3:53 PM 46.9 °F - 32.0 °F 56% 29.77 in 10.0 mi WSW 13.8 mph - N/A   Overcast
4:53 PM 46.9 °F - 33.1 °F 59% 29.80 in 10.0 mi West 16.1 mph 24.2 mph N/A   Overcast
5:53 PM 46.0 °F 40.6 °F 33.1 °F 61% 29.83 in 10.0 mi West 11.5 mph - N/A   Overcast
6:53 PM 45.0 °F 39.7 °F 30.9 °F 58% 29.86 in 10.0 mi West 10.4 mph 23.0 mph N/A   Overcast
7:53 PM 44.1 °F 39.5 °F 30.9 °F 60% 29.88 in 10.0 mi West 8.1 mph - N/A   Overcast
8:53 PM 44.1 °F 40.1 °F 30.9 °F 60% 29.88 in 10.0 mi WSW 6.9 mph - N/A   Overcast
9:53 PM 44.1 °F 40.8 °F 30.9 °F 60% 29.91 in 10.0 mi WSW 5.8 mph - N/A   Overcast
10:53 PM 44.1 °F 40.1 °F 32.0 °F 63% 29.92 in 10.0 mi WSW 6.9 mph - N/A   Overcast
11:53 PM 44.1 °F 40.1 °F 32.0 °F 63% 29.92 in 10.0 mi WSW 6.9 mph - N/A   Overcast